Year,Month,Day,Hour,Minute,Value (Times are PST for temperature in C)
2010,04,17,00,00,8.40
2010,04,17,00,01,8.40
2010,04,17,00,02,8.40
2010,04,17,00,03,8.40
2010,04,17,00,04,8.40
2010,04,17,00,05,8.40
2010,04,17,00,06,8.40
2010,04,17,00,07,8.40
2010,04,17,00,08,8.30
2010,04,17,00,09,8.30
2010,04,17,00,10,8.30
2010,04,17,00,11,8.20
2010,04,17,00,12,8.10
2010,04,17,00,13,8.10
2010,04,17,00,14,8.00
2010,04,17,00,15,7.90
2010,04,17,00,16,7.90
2010,04,17,00,17,7.80
2010,04,17,00,18,7.80
2010,04,17,00,19,7.80
2010,04,17,00,20,7.70
2010,04,17,00,21,7.70
2010,04,17,00,22,7.70
2010,04,17,00,23,7.70
2010,04,17,00,24,7.60
2010,04,17,00,25,7.60
2010,04,17,00,26,7.60
2010,04,17,00,27,7.60
2010,04,17,00,28,7.60
2010,04,17,00,29,7.50
2010,04,17,00,30,7.50
2010,04,17,00,31,7.50
2010,04,17,00,32,7.50
2010,04,17,00,33,7.50
2010,04,17,00,34,7.50
2010,04,17,00,35,7.50
2010,04,17,00,36,7.50
2010,04,17,00,37,7.50
2010,04,17,00,38,7.50
2010,04,17,00,39,7.50
2010,04,17,00,40,7.50
2010,04,17,00,41,7.50
2010,04,17,00,42,7.40
2010,04,17,00,43,7.40
2010,04,17,00,44,7.40
2010,04,17,00,45,7.40
2010,04,17,00,46,7.30
2010,04,17,00,47,7.30
2010,04,17,00,48,7.30
2010,04,17,00,49,7.30
2010,04,17,00,50,7.30
2010,04,17,00,51,7.20
2010,04,17,00,52,7.20
2010,04,17,00,53,7.20
2010,04,17,00,54,7.20
2010,04,17,00,55,7.20
2010,04,17,00,56,7.20
2010,04,17,00,57,7.20
2010,04,17,00,58,7.20
2010,04,17,00,59,7.20
2010,04,17,01,00,7.20
2010,04,17,01,01,7.20
2010,04,17,01,02,7.10
2010,04,17,01,03,7.10
2010,04,17,01,04,7.10
2010,04,17,01,05,7.10
2010,04,17,01,06,7.10
2010,04,17,01,07,7.10
2010,04,17,01,08,7.10
2010,04,17,01,09,7.00
2010,04,17,01,10,7.00
2010,04,17,01,11,7.00
2010,04,17,01,12,6.90
2010,04,17,01,13,6.90
2010,04,17,01,14,6.90
2010,04,17,01,15,6.90
2010,04,17,01,16,6.90
2010,04,17,01,17,6.90
2010,04,17,01,18,6.90
2010,04,17,01,19,6.80
2010,04,17,01,20,6.90
2010,04,17,01,21,6.80
2010,04,17,01,22,6.80
2010,04,17,01,23,6.80
2010,04,17,01,24,6.80
2010,04,17,01,25,6.80
2010,04,17,01,26,6.70
2010,04,17,01,27,6.70
2010,04,17,01,28,6.70
2010,04,17,01,29,6.70
2010,04,17,01,30,6.60
2010,04,17,01,31,6.60
2010,04,17,01,32,6.60
2010,04,17,01,33,6.60
2010,04,17,01,34,6.60
2010,04,17,01,35,6.60
2010,04,17,01,36,6.60
2010,04,17,01,37,6.60
2010,04,17,01,38,6.60
2010,04,17,01,39,6.60
2010,04,17,01,40,6.60
2010,04,17,01,41,6.60
2010,04,17,01,42,6.60
2010,04,17,01,43,6.50
2010,04,17,01,44,6.50
2010,04,17,01,45,6.40
2010,04,17,01,46,6.40
2010,04,17,01,47,6.40
2010,04,17,01,48,6.40
2010,04,17,01,49,6.40
2010,04,17,01,50,6.30
2010,04,17,01,51,6.30
2010,04,17,01,52,6.30
2010,04,17,01,53,6.30
2010,04,17,01,54,6.30
2010,04,17,01,55,6.20
2010,04,17,01,56,6.20
2010,04,17,01,57,6.20
2010,04,17,01,58,6.20
2010,04,17,01,59,6.10
2010,04,17,02,00,6.10
2010,04,17,02,01,6.10
2010,04,17,02,02,6.00
2010,04,17,02,03,6.00
2010,04,17,02,04,6.00
2010,04,17,02,05,6.10
2010,04,17,02,06,6.10
2010,04,17,02,07,6.10
2010,04,17,02,08,6.00
2010,04,17,02,09,6.00
2010,04,17,02,10,5.90
2010,04,17,02,11,5.90
2010,04,17,02,12,5.90
2010,04,17,02,13,5.90
2010,04,17,02,14,5.90
2010,04,17,02,15,5.90
2010,04,17,02,16,5.90
2010,04,17,02,17,5.80
2010,04,17,02,18,5.80
2010,04,17,02,19,5.80
2010,04,17,02,20,5.80
2010,04,17,02,21,5.80
2010,04,17,02,22,5.90
2010,04,17,02,23,5.90
2010,04,17,02,24,5.90
2010,04,17,02,25,5.90
2010,04,17,02,26,5.80
2010,04,17,02,27,5.80
2010,04,17,02,28,5.80
2010,04,17,02,29,5.80
2010,04,17,02,30,5.80
2010,04,17,02,31,5.80
2010,04,17,02,32,5.80
2010,04,17,02,33,5.80
2010,04,17,02,34,5.80
2010,04,17,02,35,5.70
2010,04,17,02,36,5.70
2010,04,17,02,37,5.70
2010,04,17,02,38,5.70
2010,04,17,02,39,5.70
2010,04,17,02,40,5.70
2010,04,17,02,41,5.60
2010,04,17,02,42,5.60
2010,04,17,02,43,5.60
2010,04,17,02,44,5.60
2010,04,17,02,45,5.60
2010,04,17,02,46,5.60
2010,04,17,02,47,5.60
2010,04,17,02,48,5.60
2010,04,17,02,49,5.60
2010,04,17,02,50,5.60
2010,04,17,02,51,5.60
2010,04,17,02,52,5.60
2010,04,17,02,53,5.60
2010,04,17,02,54,5.70
2010,04,17,02,55,5.70
2010,04,17,02,56,5.70
2010,04,17,02,57,5.70
2010,04,17,02,58,5.70
2010,04,17,02,59,5.70
2010,04,17,03,00,5.70
2010,04,17,03,01,5.70
2010,04,17,03,02,5.70
2010,04,17,03,03,5.70
2010,04,17,03,04,5.70
2010,04,17,03,05,5.60
2010,04,17,03,06,5.60
2010,04,17,03,07,5.60
2010,04,17,03,08,5.60
2010,04,17,03,09,5.60
2010,04,17,03,10,5.60
2010,04,17,03,11,5.60
2010,04,17,03,12,5.60
2010,04,17,03,13,5.60
2010,04,17,03,14,5.60
2010,04,17,03,15,5.60
2010,04,17,03,16,5.60
2010,04,17,03,17,5.60
2010,04,17,03,18,5.60
2010,04,17,03,19,5.60
2010,04,17,03,20,5.60
2010,04,17,03,21,5.60
2010,04,17,03,22,5.70
2010,04,17,03,23,5.70
2010,04,17,03,24,5.70
2010,04,17,03,25,5.80
2010,04,17,03,26,5.80
2010,04,17,03,27,5.80
2010,04,17,03,28,5.80
2010,04,17,03,29,5.80
2010,04,17,03,30,5.80
2010,04,17,03,31,5.80
2010,04,17,03,32,5.80
2010,04,17,03,33,5.80
2010,04,17,03,34,5.80
2010,04,17,03,35,5.80
2010,04,17,03,36,5.80
2010,04,17,03,37,5.80
2010,04,17,03,38,5.80
2010,04,17,03,39,5.80
2010,04,17,03,40,5.80
2010,04,17,03,41,5.80
2010,04,17,03,42,5.80
2010,04,17,03,43,5.90
2010,04,17,03,44,5.90
2010,04,17,03,45,5.90
2010,04,17,03,46,6.00
2010,04,17,03,47,6.00
2010,04,17,03,48,6.00
2010,04,17,03,49,6.00
2010,04,17,03,50,6.00
2010,04,17,03,51,6.00
2010,04,17,03,52,6.00
2010,04,17,03,53,6.00
2010,04,17,03,54,6.00
2010,04,17,03,55,6.00
2010,04,17,03,56,6.00
2010,04,17,03,57,5.90
2010,04,17,03,58,6.00
2010,04,17,03,59,6.00
2010,04,17,04,00,6.00
2010,04,17,04,01,6.00
2010,04,17,04,02,6.00
2010,04,17,04,03,6.00
2010,04,17,04,04,5.90
2010,04,17,04,05,5.90
2010,04,17,04,06,5.90
2010,04,17,04,07,5.90
2010,04,17,04,08,5.90
2010,04,17,04,09,5.90
2010,04,17,04,10,5.90
2010,04,17,04,11,5.90
2010,04,17,04,12,5.90
2010,04,17,04,13,5.80
2010,04,17,04,14,5.80
2010,04,17,04,15,5.80
2010,04,17,04,16,5.70
2010,04,17,04,17,5.70
2010,04,17,04,18,5.70
2010,04,17,04,19,5.70
2010,04,17,04,20,5.60
2010,04,17,04,21,5.60
2010,04,17,04,22,5.60
2010,04,17,04,23,5.60
2010,04,17,04,24,5.60
2010,04,17,04,25,5.60
2010,04,17,04,26,5.60
2010,04,17,04,27,5.50
2010,04,17,04,28,5.50
2010,04,17,04,29,5.40
2010,04,17,04,30,5.40
2010,04,17,04,31,5.40
2010,04,17,04,32,5.40
2010,04,17,04,33,5.30
2010,04,17,04,34,5.30
2010,04,17,04,35,5.30
2010,04,17,04,36,5.30
2010,04,17,04,37,5.30
2010,04,17,04,38,5.30
2010,04,17,04,39,5.30
2010,04,17,04,40,5.40
2010,04,17,04,41,5.40
2010,04,17,04,42,5.40
2010,04,17,04,43,5.40
2010,04,17,04,44,5.40
2010,04,17,04,45,5.40
2010,04,17,04,46,5.40
2010,04,17,04,47,5.40
2010,04,17,04,48,5.50
2010,04,17,04,49,5.50
2010,04,17,04,50,5.60
2010,04,17,04,51,5.60
2010,04,17,04,52,5.60
2010,04,17,04,53,5.60
2010,04,17,04,54,5.60
2010,04,17,04,55,5.60
2010,04,17,04,56,5.70
2010,04,17,04,57,5.70
2010,04,17,04,58,5.70
2010,04,17,04,59,5.70
2010,04,17,05,00,5.70
2010,04,17,05,01,5.70
2010,04,17,05,02,5.70
2010,04,17,05,03,5.70
2010,04,17,05,04,5.70
2010,04,17,05,05,5.70
2010,04,17,05,06,5.80
2010,04,17,05,07,5.80
2010,04,17,05,08,5.80
2010,04,17,05,09,5.80
2010,04,17,05,10,5.80
2010,04,17,05,11,5.80
2010,04,17,05,12,5.80
2010,04,17,05,13,5.80
2010,04,17,05,14,5.80
2010,04,17,05,15,5.80
2010,04,17,05,16,5.80
2010,04,17,05,17,5.90
2010,04,17,05,18,5.90
2010,04,17,05,19,5.90
2010,04,17,05,20,5.90
2010,04,17,05,21,5.90
2010,04,17,05,22,5.90
2010,04,17,05,23,6.00
2010,04,17,05,24,6.00
2010,04,17,05,25,6.00
2010,04,17,05,26,6.00
2010,04,17,05,27,6.00
2010,04,17,05,28,6.10
2010,04,17,05,29,6.10
2010,04,17,05,30,6.10
2010,04,17,05,31,6.10
2010,04,17,05,32,6.10
2010,04,17,05,33,6.10
2010,04,17,05,34,6.20
2010,04,17,05,35,6.20
2010,04,17,05,36,6.20
2010,04,17,05,37,6.20
2010,04,17,05,38,6.20
2010,04,17,05,39,6.30
2010,04,17,05,40,6.30
2010,04,17,05,41,6.30
2010,04,17,05,42,6.30
2010,04,17,05,43,6.40
2010,04,17,05,44,6.40
2010,04,17,05,45,6.50
2010,04,17,05,46,6.50
2010,04,17,05,47,6.60
2010,04,17,05,48,6.60
2010,04,17,05,49,6.60
2010,04,17,05,50,6.60
2010,04,17,05,51,6.60
2010,04,17,05,52,6.70
2010,04,17,05,53,6.70
2010,04,17,05,54,6.70
2010,04,17,05,55,6.70
2010,04,17,05,56,6.70
2010,04,17,05,57,6.70
2010,04,17,05,58,6.80
2010,04,17,05,59,6.80
2010,04,17,06,00,6.80
2010,04,17,06,01,6.80
2010,04,17,06,02,6.80
2010,04,17,06,03,6.80
2010,04,17,06,04,6.80
2010,04,17,06,05,6.80
2010,04,17,06,06,6.80
2010,04,17,06,07,6.80
2010,04,17,06,08,6.70
2010,04,17,06,09,6.70
2010,04,17,06,10,6.70
2010,04,17,06,11,6.70
2010,04,17,06,12,6.60
2010,04,17,06,13,6.60
2010,04,17,06,14,6.60
2010,04,17,06,15,6.60
2010,04,17,06,16,6.60
2010,04,17,06,17,6.60
2010,04,17,06,18,6.70
2010,04,17,06,19,6.70
2010,04,17,06,20,6.70
2010,04,17,06,21,6.70
2010,04,17,06,22,6.70
2010,04,17,06,23,6.80
2010,04,17,06,24,6.80
2010,04,17,06,25,6.80
2010,04,17,06,26,6.80
2010,04,17,06,27,6.90
2010,04,17,06,28,6.90
2010,04,17,06,29,6.90
2010,04,17,06,30,6.90
2010,04,17,06,31,7.00
2010,04,17,06,32,7.00
2010,04,17,06,33,7.00
2010,04,17,06,34,7.10
2010,04,17,06,35,7.10
2010,04,17,06,36,7.10
2010,04,17,06,37,7.10
2010,04,17,06,38,7.20
2010,04,17,06,39,7.20
2010,04,17,06,40,7.20
2010,04,17,06,41,7.20
2010,04,17,06,42,7.20
2010,04,17,06,43,7.20
2010,04,17,06,44,7.20
2010,04,17,06,45,7.20
2010,04,17,06,46,7.20
2010,04,17,06,47,7.30
2010,04,17,06,48,7.30
2010,04,17,06,49,7.30
2010,04,17,06,50,7.30
2010,04,17,06,51,7.30
2010,04,17,06,52,7.40
2010,04,17,06,53,7.40
2010,04,17,06,54,7.40
2010,04,17,06,55,7.40
2010,04,17,06,56,7.40
2010,04,17,06,57,7.40
2010,04,17,06,58,7.40
2010,04,17,06,59,7.40
2010,04,17,07,00,7.50
2010,04,17,07,01,7.50
2010,04,17,07,02,7.60
2010,04,17,07,03,7.60
2010,04,17,07,04,7.70
2010,04,17,07,05,7.70
2010,04,17,07,06,7.80
2010,04,17,07,07,7.80
2010,04,17,07,08,7.80
2010,04,17,07,09,7.90
2010,04,17,07,10,7.90
2010,04,17,07,11,7.90
2010,04,17,07,12,8.00
2010,04,17,07,13,8.00
2010,04,17,07,14,8.00
2010,04,17,07,15,8.00
2010,04,17,07,16,8.10
2010,04,17,07,17,8.10
2010,04,17,07,18,8.10
2010,04,17,07,19,8.10
2010,04,17,07,20,8.20
2010,04,17,07,21,8.20
2010,04,17,07,22,8.20
2010,04,17,07,23,8.20
2010,04,17,07,24,8.20
2010,04,17,07,25,8.20
2010,04,17,07,26,8.20
2010,04,17,07,27,8.20
2010,04,17,07,28,8.20
2010,04,17,07,29,8.20
2010,04,17,07,30,8.20
2010,04,17,07,31,8.30
2010,04,17,07,32,8.30
2010,04,17,07,33,8.20
2010,04,17,07,34,8.20
2010,04,17,07,35,8.20
2010,04,17,07,36,8.20
2010,04,17,07,37,8.20
2010,04,17,07,38,8.20
2010,04,17,07,39,8.20
2010,04,17,07,40,8.20
2010,04,17,07,41,8.20
2010,04,17,07,42,8.30
2010,04,17,07,43,8.30
2010,04,17,07,44,8.40
2010,04,17,07,45,8.40
2010,04,17,07,46,8.50
2010,04,17,07,47,8.50
2010,04,17,07,48,8.60
2010,04,17,07,49,8.60
2010,04,17,07,50,8.60
2010,04,17,07,51,8.70
2010,04,17,07,52,8.70
2010,04,17,07,53,8.70
2010,04,17,07,54,8.70
2010,04,17,07,55,8.70
2010,04,17,07,56,8.70
2010,04,17,07,57,8.70
2010,04,17,07,58,8.80
2010,04,17,07,59,8.80
2010,04,17,08,00,8.80
2010,04,17,08,01,8.80
2010,04,17,08,02,8.80
2010,04,17,08,03,8.80
2010,04,17,08,04,8.80
2010,04,17,08,05,8.80
2010,04,17,08,06,8.80
2010,04,17,08,07,8.80
2010,04,17,08,08,8.80
2010,04,17,08,09,8.80
2010,04,17,08,10,8.90
2010,04,17,08,11,8.90
2010,04,17,08,12,8.90
2010,04,17,08,13,8.90
2010,04,17,08,14,8.90
2010,04,17,08,15,8.90
2010,04,17,08,16,8.90
2010,04,17,08,17,8.90
2010,04,17,08,18,9.00
2010,04,17,08,19,9.00
2010,04,17,08,20,9.00
2010,04,17,08,21,9.00
2010,04,17,08,22,9.00
2010,04,17,08,23,9.10
2010,04,17,08,24,9.10
2010,04,17,08,25,9.10
2010,04,17,08,26,9.10
2010,04,17,08,27,9.10
2010,04,17,08,28,9.20
2010,04,17,08,29,9.20
2010,04,17,08,30,9.20
2010,04,17,08,31,9.20
2010,04,17,08,32,9.20
2010,04,17,08,33,9.20
2010,04,17,08,34,9.20
2010,04,17,08,35,9.30
2010,04,17,08,36,9.30
2010,04,17,08,37,9.30
2010,04,17,08,38,9.30
2010,04,17,08,39,9.30
2010,04,17,08,40,9.40
2010,04,17,08,41,9.40
2010,04,17,08,42,9.40
2010,04,17,08,43,9.40
2010,04,17,08,44,9.40
2010,04,17,08,45,9.40
2010,04,17,08,46,9.40
2010,04,17,08,47,9.40
2010,04,17,08,48,9.40
2010,04,17,08,49,9.40
2010,04,17,08,50,9.40
2010,04,17,08,51,9.40
2010,04,17,08,52,9.40
2010,04,17,08,53,9.40
2010,04,17,08,54,9.40
2010,04,17,08,55,9.40
2010,04,17,08,56,9.40
2010,04,17,08,57,9.40
2010,04,17,08,58,9.40
2010,04,17,08,59,9.50
2010,04,17,09,00,9.50
2010,04,17,09,01,9.50
2010,04,17,09,02,9.40
2010,04,17,09,03,9.50
2010,04,17,09,04,9.50
2010,04,17,09,05,9.50
2010,04,17,09,06,9.60
2010,04,17,09,07,9.60
2010,04,17,09,08,9.60
2010,04,17,09,09,9.60
2010,04,17,09,10,9.60
2010,04,17,09,11,9.60
2010,04,17,09,12,9.60
2010,04,17,09,13,9.60
2010,04,17,09,14,9.60
2010,04,17,09,15,9.60
2010,04,17,09,16,9.60
2010,04,17,09,17,9.60
2010,04,17,09,18,9.60
2010,04,17,09,19,9.60
2010,04,17,09,20,9.60
2010,04,17,09,21,9.60
2010,04,17,09,22,9.60
2010,04,17,09,23,9.60
2010,04,17,09,24,9.60
2010,04,17,09,25,9.60
2010,04,17,09,26,9.60
2010,04,17,09,27,9.60
2010,04,17,09,28,9.70
2010,04,17,09,29,9.70
2010,04,17,09,30,9.70
2010,04,17,09,31,9.70
2010,04,17,09,32,9.70
2010,04,17,09,33,9.70
2010,04,17,09,34,9.70
2010,04,17,09,35,9.70
2010,04,17,09,36,9.70
2010,04,17,09,37,9.70
2010,04,17,09,38,9.70
2010,04,17,09,39,9.70
2010,04,17,09,40,9.70
2010,04,17,09,41,9.70
2010,04,17,09,42,9.80
2010,04,17,09,43,9.80
2010,04,17,09,44,9.80
2010,04,17,09,45,9.80
2010,04,17,09,46,9.80
2010,04,17,09,47,9.80
2010,04,17,09,48,9.80
2010,04,17,09,49,9.80
2010,04,17,09,50,9.80
2010,04,17,09,51,9.90
2010,04,17,09,52,9.90
2010,04,17,09,53,10.00
2010,04,17,09,54,10.00
2010,04,17,09,55,10.10
2010,04,17,09,56,10.10
2010,04,17,09,57,10.00
2010,04,17,09,58,10.00
2010,04,17,09,59,10.00
2010,04,17,10,00,10.10
2010,04,17,10,01,10.10
2010,04,17,10,02,10.10
2010,04,17,10,03,10.10
2010,04,17,10,04,10.10
2010,04,17,10,05,10.10
2010,04,17,10,06,10.10
2010,04,17,10,07,10.10
2010,04,17,10,08,10.20
2010,04,17,10,09,10.20
2010,04,17,10,10,10.20
2010,04,17,10,11,10.20
2010,04,17,10,12,10.30
2010,04,17,10,13,10.30
2010,04,17,10,14,10.30
2010,04,17,10,15,10.40
2010,04,17,10,16,10.40
2010,04,17,10,17,10.40
2010,04,17,10,18,10.50
2010,04,17,10,19,10.40
2010,04,17,10,20,10.40
2010,04,17,10,21,10.40
2010,04,17,10,22,10.40
2010,04,17,10,23,10.40
2010,04,17,10,24,10.40
2010,04,17,10,25,10.40
2010,04,17,10,26,10.40
2010,04,17,10,27,10.40
2010,04,17,10,28,10.40
2010,04,17,10,29,10.40
2010,04,17,10,30,10.40
2010,04,17,10,31,10.40
2010,04,17,10,32,10.50
2010,04,17,10,33,10.50
2010,04,17,10,34,10.50
2010,04,17,10,35,10.50
2010,04,17,10,36,10.60
2010,04,17,10,37,10.60
2010,04,17,10,38,10.60
2010,04,17,10,39,10.60
2010,04,17,10,40,10.60
2010,04,17,10,41,10.60
2010,04,17,10,42,10.60
2010,04,17,10,43,10.70
2010,04,17,10,44,10.70
2010,04,17,10,45,10.70
2010,04,17,10,46,10.80
2010,04,17,10,47,10.80
2010,04,17,10,48,10.80
2010,04,17,10,49,10.80
2010,04,17,10,50,10.80
2010,04,17,10,51,10.80
2010,04,17,10,52,10.80
2010,04,17,10,53,10.80
2010,04,17,10,54,10.80
2010,04,17,10,55,10.80
2010,04,17,10,56,10.80
2010,04,17,10,57,10.80
2010,04,17,10,58,10.80
2010,04,17,10,59,10.80
2010,04,17,11,00,10.90
2010,04,17,11,01,10.90
2010,04,17,11,02,10.90
2010,04,17,11,03,10.90
2010,04,17,11,04,11.00
2010,04,17,11,05,11.00
2010,04,17,11,06,11.10
2010,04,17,11,07,11.10
2010,04,17,11,08,11.10
2010,04,17,11,09,11.10
2010,04,17,11,10,11.10
2010,04,17,11,11,11.00
2010,04,17,11,12,11.00
2010,04,17,11,13,10.90
2010,04,17,11,14,10.90
2010,04,17,11,15,10.90
2010,04,17,11,16,11.00
2010,04,17,11,17,11.00
2010,04,17,11,18,11.10
2010,04,17,11,19,11.10
2010,04,17,11,20,11.20
2010,04,17,11,21,11.20
2010,04,17,11,22,11.30
2010,04,17,11,23,11.30
2010,04,17,11,24,11.30
2010,04,17,11,25,11.20
2010,04,17,11,26,11.20
2010,04,17,11,27,11.20
2010,04,17,11,28,11.20
2010,04,17,11,29,11.20
2010,04,17,11,30,11.20
2010,04,17,11,31,11.20
2010,04,17,11,32,11.20
2010,04,17,11,33,11.10
2010,04,17,11,34,11.10
2010,04,17,11,35,11.20
2010,04,17,11,36,11.20
2010,04,17,11,37,11.20
2010,04,17,11,38,11.20
2010,04,17,11,39,11.20
2010,04,17,11,40,11.30
2010,04,17,11,41,11.30
2010,04,17,11,42,11.30
2010,04,17,11,43,11.30
2010,04,17,11,44,11.30
2010,04,17,11,45,11.30
2010,04,17,11,46,11.30
2010,04,17,11,47,11.30
2010,04,17,11,48,11.30
2010,04,17,11,49,11.30
2010,04,17,11,50,11.30
2010,04,17,11,51,11.30
2010,04,17,11,52,11.30
2010,04,17,11,53,11.30
2010,04,17,11,54,11.30
2010,04,17,11,55,11.30
2010,04,17,11,56,11.30
2010,04,17,11,57,11.30
2010,04,17,11,58,11.30
2010,04,17,11,59,11.30
2010,04,17,12,00,11.30
2010,04,17,12,01,11.40
2010,04,17,12,02,11.40
2010,04,17,12,03,11.40
2010,04,17,12,04,11.50
2010,04,17,12,05,11.50
2010,04,17,12,06,11.50
2010,04,17,12,07,11.60
2010,04,17,12,08,11.60
2010,04,17,12,09,11.70
2010,04,17,12,10,11.70
2010,04,17,12,11,11.70
2010,04,17,12,12,11.70
2010,04,17,12,13,11.70
2010,04,17,12,14,11.70
2010,04,17,12,15,11.70
2010,04,17,12,16,11.70
2010,04,17,12,17,11.60
2010,04,17,12,18,11.60
2010,04,17,12,19,11.70
2010,04,17,12,20,11.70
2010,04,17,12,21,11.70
2010,04,17,12,22,11.80
2010,04,17,12,23,11.80
2010,04,17,12,24,11.80
2010,04,17,12,25,11.80
2010,04,17,12,26,11.80
2010,04,17,12,27,11.80
2010,04,17,12,28,11.80
2010,04,17,12,29,11.80
2010,04,17,12,30,11.90
2010,04,17,12,31,11.90
2010,04,17,12,32,11.90
2010,04,17,12,33,11.90
2010,04,17,12,34,11.90
2010,04,17,12,35,11.90
2010,04,17,12,36,11.80
2010,04,17,12,37,11.80
2010,04,17,12,38,11.80
2010,04,17,12,39,11.90
2010,04,17,12,40,11.90
2010,04,17,12,41,12.00
2010,04,17,12,42,12.00
2010,04,17,12,43,12.00
2010,04,17,12,44,11.90
2010,04,17,12,45,11.90
2010,04,17,12,46,12.00
2010,04,17,12,47,11.90
2010,04,17,12,48,11.90
2010,04,17,12,49,12.00
2010,04,17,12,50,12.00
2010,04,17,12,51,12.10
2010,04,17,12,52,12.10
2010,04,17,12,53,12.10
2010,04,17,12,54,12.10
2010,04,17,12,55,12.10
2010,04,17,12,56,12.10
2010,04,17,12,57,12.10
2010,04,17,12,58,12.10
2010,04,17,12,59,12.10
2010,04,17,13,00,12.10
2010,04,17,13,01,12.10
2010,04,17,13,02,12.00
2010,04,17,13,03,12.00
2010,04,17,13,04,12.10
2010,04,17,13,05,12.10
2010,04,17,13,06,12.20
2010,04,17,13,07,12.20
2010,04,17,13,08,12.20
2010,04,17,13,09,12.20
2010,04,17,13,10,12.30
2010,04,17,13,11,12.30
2010,04,17,13,12,12.30
2010,04,17,13,13,12.30
2010,04,17,13,14,12.30
2010,04,17,13,15,12.30
2010,04,17,13,16,12.40
2010,04,17,13,17,12.50
2010,04,17,13,18,12.50
2010,04,17,13,19,12.60
2010,04,17,13,20,12.60
2010,04,17,13,21,12.60
2010,04,17,13,22,12.70
2010,04,17,13,23,12.70
2010,04,17,13,24,12.70
2010,04,17,13,25,12.70
2010,04,17,13,26,12.70
2010,04,17,13,27,12.70
2010,04,17,13,28,12.70
2010,04,17,13,29,12.70
2010,04,17,13,30,12.70
2010,04,17,13,31,12.80
2010,04,17,13,32,12.80
2010,04,17,13,33,12.80
2010,04,17,13,34,12.80
2010,04,17,13,35,12.80
2010,04,17,13,36,12.80
2010,04,17,13,37,12.80
2010,04,17,13,38,12.80
2010,04,17,13,39,12.80
2010,04,17,13,40,12.80
2010,04,17,13,41,12.80
2010,04,17,13,42,12.80
2010,04,17,13,43,12.80
2010,04,17,13,44,12.80
2010,04,17,13,45,12.90
2010,04,17,13,46,12.90
2010,04,17,13,47,12.90
2010,04,17,13,48,12.90
2010,04,17,13,49,12.90
2010,04,17,13,50,12.90
2010,04,17,13,51,12.90
2010,04,17,13,52,12.80
2010,04,17,13,53,12.80
2010,04,17,13,54,12.90
2010,04,17,13,55,12.90
2010,04,17,13,56,12.90
2010,04,17,13,57,13.00
2010,04,17,13,58,12.90
2010,04,17,13,59,12.90
2010,04,17,14,00,12.90
2010,04,17,14,01,12.80
2010,04,17,14,02,12.80
2010,04,17,14,03,12.80
2010,04,17,14,04,12.80
2010,04,17,14,05,12.90
2010,04,17,14,06,12.90
2010,04,17,14,07,13.00
2010,04,17,14,08,13.00
2010,04,17,14,09,13.10
2010,04,17,14,10,13.10
2010,04,17,14,11,13.10
2010,04,17,14,12,13.10
2010,04,17,14,13,13.00
2010,04,17,14,14,13.10
2010,04,17,14,15,13.10
2010,04,17,14,16,13.10
2010,04,17,14,17,13.10
2010,04,17,14,18,13.10
2010,04,17,14,19,13.10
2010,04,17,14,20,13.10
2010,04,17,14,21,13.10
2010,04,17,14,22,13.10
2010,04,17,14,23,13.10
2010,04,17,14,24,13.10
2010,04,17,14,25,13.10
2010,04,17,14,26,13.10
2010,04,17,14,27,13.00
2010,04,17,14,28,13.00
2010,04,17,14,29,13.00
2010,04,17,14,30,13.00
2010,04,17,14,31,13.00
2010,04,17,14,32,12.90
2010,04,17,14,33,12.90
2010,04,17,14,34,12.90
2010,04,17,14,35,12.90
2010,04,17,14,36,12.90
2010,04,17,14,37,12.90
2010,04,17,14,38,12.90
2010,04,17,14,39,12.90
2010,04,17,14,40,12.90
2010,04,17,14,41,12.90
2010,04,17,14,42,13.00
2010,04,17,14,43,13.00
2010,04,17,14,44,13.00
2010,04,17,14,45,13.00
2010,04,17,14,46,13.10
2010,04,17,14,47,13.10
2010,04,17,14,48,13.10
2010,04,17,14,49,13.10
2010,04,17,14,50,13.10
2010,04,17,14,51,13.10
2010,04,17,14,52,13.10
2010,04,17,14,53,13.10
2010,04,17,14,54,13.10
2010,04,17,14,55,13.10
2010,04,17,14,56,13.10
2010,04,17,14,57,13.10
2010,04,17,14,58,13.10
2010,04,17,14,59,13.10
2010,04,17,15,00,13.10
2010,04,17,15,01,13.20
2010,04,17,15,02,13.20
2010,04,17,15,03,13.20
2010,04,17,15,04,13.20
2010,04,17,15,05,13.20
2010,04,17,15,06,13.20
2010,04,17,15,07,13.20
2010,04,17,15,08,13.20
2010,04,17,15,09,13.30
2010,04,17,15,10,13.30
2010,04,17,15,11,13.40
2010,04,17,15,12,13.40
2010,04,17,15,13,13.40
2010,04,17,15,14,13.40
2010,04,17,15,15,13.40
2010,04,17,15,16,13.40
2010,04,17,15,17,13.40
2010,04,17,15,18,13.40
2010,04,17,15,19,13.30
2010,04,17,15,20,13.40
2010,04,17,15,21,13.40
2010,04,17,15,22,13.40
2010,04,17,15,23,13.40
2010,04,17,15,24,13.40
2010,04,17,15,25,13.40
2010,04,17,15,26,13.30
2010,04,17,15,27,13.40
2010,04,17,15,28,13.40
2010,04,17,15,29,13.50
2010,04,17,15,30,13.50
2010,04,17,15,31,13.50
2010,04,17,15,32,13.60
2010,04,17,15,33,13.60
2010,04,17,15,34,13.60
2010,04,17,15,35,13.60
2010,04,17,15,36,13.60
2010,04,17,15,37,13.70
2010,04,17,15,38,13.70
2010,04,17,15,39,13.70
2010,04,17,15,40,13.80
2010,04,17,15,41,13.80
2010,04,17,15,42,13.80
2010,04,17,15,43,13.90
2010,04,17,15,44,13.90
2010,04,17,15,45,14.00
2010,04,17,15,46,14.10
2010,04,17,15,47,14.10
2010,04,17,15,48,14.10
2010,04,17,15,49,14.10
2010,04,17,15,50,14.20
2010,04,17,15,51,14.20
2010,04,17,15,52,14.20
2010,04,17,15,53,14.20
2010,04,17,15,54,14.30
2010,04,17,15,55,14.30
2010,04,17,15,56,14.30
2010,04,17,15,57,14.30
2010,04,17,15,58,14.40
2010,04,17,15,59,14.40
2010,04,17,16,00,14.40
2010,04,17,16,01,14.50
2010,04,17,16,02,14.50
2010,04,17,16,03,14.60
2010,04,17,16,04,14.70
2010,04,17,16,05,14.70
2010,04,17,16,06,14.70
2010,04,17,16,07,14.80
2010,04,17,16,08,14.80
2010,04,17,16,09,14.90
2010,04,17,16,10,14.90
2010,04,17,16,11,15.00
2010,04,17,16,12,15.00
2010,04,17,16,13,15.00
2010,04,17,16,14,15.00
2010,04,17,16,15,15.00
2010,04,17,16,16,15.00
2010,04,17,16,17,15.00
2010,04,17,16,18,14.90
2010,04,17,16,19,14.80
2010,04,17,16,20,14.80
2010,04,17,16,21,14.80
2010,04,17,16,22,14.80
2010,04,17,16,23,14.80
2010,04,17,16,24,14.90
2010,04,17,16,25,15.00
2010,04,17,16,26,15.00
2010,04,17,16,27,15.00
2010,04,17,16,28,15.00
2010,04,17,16,29,15.00
2010,04,17,16,30,15.00
2010,04,17,16,31,15.10
2010,04,17,16,32,15.30
2010,04,17,16,33,15.30
2010,04,17,16,34,15.40
2010,04,17,16,35,15.40
2010,04,17,16,36,15.40
2010,04,17,16,37,15.40
2010,04,17,16,38,15.40
2010,04,17,16,39,15.40
2010,04,17,16,40,15.40
2010,04,17,16,41,15.40
2010,04,17,16,42,15.50
2010,04,17,16,43,15.60
2010,04,17,16,44,15.70
2010,04,17,16,45,15.70
2010,04,17,16,46,15.70
2010,04,17,16,47,15.80
2010,04,17,16,48,15.70
2010,04,17,16,49,15.70
2010,04,17,16,50,15.70
2010,04,17,16,51,15.70
2010,04,17,16,52,15.70
2010,04,17,16,53,15.70
2010,04,17,16,54,15.70
2010,04,17,16,55,15.80
2010,04,17,16,56,15.80
2010,04,17,16,57,15.80
2010,04,17,16,58,15.80
2010,04,17,16,59,15.80
2010,04,17,17,00,15.80
2010,04,17,17,01,15.70
2010,04,17,17,02,15.60
2010,04,17,17,03,15.60
2010,04,17,17,04,15.60
2010,04,17,17,05,15.60
2010,04,17,17,06,15.60
2010,04,17,17,07,15.60
2010,04,17,17,08,15.60
2010,04,17,17,09,15.70
2010,04,17,17,10,15.70
2010,04,17,17,11,15.70
2010,04,17,17,12,15.70
2010,04,17,17,13,15.70
2010,04,17,17,14,15.70
2010,04,17,17,15,15.70
2010,04,17,17,16,15.70
2010,04,17,17,17,15.70
2010,04,17,17,18,15.60
2010,04,17,17,19,15.60
2010,04,17,17,20,15.60
2010,04,17,17,21,15.60
2010,04,17,17,22,15.60
2010,04,17,17,23,15.60
2010,04,17,17,24,15.50
2010,04,17,17,25,15.40
2010,04,17,17,26,15.40
2010,04,17,17,27,15.40
2010,04,17,17,28,15.40
2010,04,17,17,29,15.40
2010,04,17,17,30,15.30
2010,04,17,17,31,15.30
2010,04,17,17,32,15.30
2010,04,17,17,33,15.30
2010,04,17,17,34,15.30
2010,04,17,17,35,15.20
2010,04,17,17,36,15.20
2010,04,17,17,37,15.10
2010,04,17,17,38,15.10
2010,04,17,17,39,15.10
2010,04,17,17,40,15.00
2010,04,17,17,41,15.00
2010,04,17,17,42,15.00
2010,04,17,17,43,15.00
2010,04,17,17,44,15.00
2010,04,17,17,45,15.00